• In Hungary
  • List of Countries
  • For 7 days
  • Water Temperature
  • Satellite Maps
  • Weather Map
  • News
  • Weather Widgets
  • user-avatar
    Login

    Hourly Weather Pazardzhik

    Today, 21 February, Wednesday

    Time Temperature Precipitation Wind Pressure Humidity
    00:00 +4°C° 0.1 mm 2 mps 741 mmHg 93%
    01:00 +4°C° 0.1 mm 2 mps 741 mmHg 93%
    02:00 +4°C° 0.1 mm 2 mps 740 mmHg 93%
    03:00 +4°C° 0.1 mm 2 mps 740 mmHg 93%
    04:00 +4°C° 0.1 mm 2 mps 740 mmHg 93%
    05:00 +4°C° 0.1 mm 2 mps 740 mmHg 93%
    06:00 +4°C° 0.2 mm 2 mps 740 mmHg 93%
    07:00 +4°C° 0.2 mm 2 mps 740 mmHg 93%
    08:00 +4°C° 0.2 mm 2 mps 740 mmHg 93%
    09:00 +5°C° 0.2 mm 2 mps 740 mmHg 91%
    10:00 +5°C° 0.2 mm 2 mps 740 mmHg 89%
    11:00 +6°C° 0.2 mm 2 mps 740 mmHg 86%
    12:00 +6°C° 0.2 mm 2 mps 740 mmHg 86%
    13:00 +7°C° 0.2 mm 2 mps 740 mmHg 85%
    14:00 +7°C° 0.2 mm 2 mps 739 mmHg 84%
    15:00 +7°C° 0.1 mm 2 mps 739 mmHg 86%
    16:00 +7°C° 0.1 mm 2 mps 739 mmHg 88%
    17:00 +7°C° 0.1 mm 2 mps 739 mmHg 90%
    18:00 +6°C° 0.1 mm 2 mps 739 mmHg 92%
    19:00 +6°C° 0.1 mm 2 mps 739 mmHg 93%
    20:00 +5°C° 0.1 mm 2 mps 739 mmHg 95%
    21:00 +5°C° 0.1 mm 2 mps 739 mmHg 95%
    22:00 +5°C° 0.1 mm 2 mps 739 mmHg 94%
    23:00 +6°C° 0.1 mm 1 mps 739 mmHg 94%

    Tomorrow, 22 February, Thursday

    Time Temperature Precipitation Wind Pressure Humidity
    00:00 +6°C° 0.4 mm 1 mps 739 mmHg 94%
    01:00 +6°C° 0.4 mm 1 mps 739 mmHg 95%
    02:00 +6°C° 0.4 mm 1 mps 739 mmHg 95%
    03:00 +6°C° 0.3 mm 1 mps 739 mmHg 95%
    04:00 +6°C° 0.3 mm 1 mps 739 mmHg 95%
    05:00 +6°C° 0.3 mm 1 mps 739 mmHg 94%
    06:00 +6°C° 0.1 mm 1 mps 739 mmHg 94%
    07:00 +6°C° 0.1 mm 1 mps 739 mmHg 94%
    08:00 +6°C° 0.1 mm 1 mps 739 mmHg 94%
    09:00 +7°C° 0.3 mm 1 mps 739 mmHg 92%
    10:00 +7°C° 0.3 mm 1 mps 739 mmHg 90%
    11:00 +7°C° 0.3 mm 2 mps 740 mmHg 88%
    12:00 +7°C° 0.3 mm 2 mps 739 mmHg 88%
    13:00 +7°C° 0.3 mm 2 mps 739 mmHg 87%
    14:00 +9°C° 0.3 mm 1 mps 739 mmHg 86%
    15:00 +9°C° 0.1 mm 1 mps 739 mmHg 87%
    16:00 +9°C° 0.1 mm 1 mps 739 mmHg 88%
    17:00 +8°C° 0.1 mm 2 mps 739 mmHg 89%
    18:00 +8°C° 0 mm 1 mps 740 mmHg 91%
    19:00 +7°C° 0 mm 1 mps 740 mmHg 94%
    20:00 +7°C° 0 mm 1 mps 740 mmHg 96%
    21:00 +7°C° 0 mm 1 mps 740 mmHg 96%
    22:00 +7°C° 0 mm 1 mps 741 mmHg 96%
    23:00 +7°C° 0 mm 1 mps 741 mmHg 96%

    Day after tomorrow, 23 February, Friday

    Time Temperature Precipitation Wind Pressure Humidity
    00:00 +7°C° 0 mm 1 mps 741 mmHg 97%
    01:00 +7°C° 0 mm 1 mps 741 mmHg 97%
    02:00 +7°C° 0 mm 1 mps 741 mmHg 97%
    03:00 +7°C° 0 mm 1 mps 741 mmHg 97%
    04:00 +7°C° 0 mm 1 mps 741 mmHg 97%
    05:00 +7°C° 0 mm 1 mps 741 mmHg 97%
    06:00 +7°C° 0 mm 1 mps 741 mmHg 96%
    07:00 +7°C° 0 mm 1 mps 741 mmHg 96%
    08:00 +7°C° 0 mm 1 mps 742 mmHg 96%
    09:00 +8°C° 0 mm 1 mps 742 mmHg 93%
    10:00 +7°C° 0 mm 2 mps 742 mmHg 90%
    11:00 +8°C° 0 mm 2 mps 742 mmHg 88%
    12:00 +8°C° 0 mm 2 mps 742 mmHg 87%
    13:00 +9°C° 0 mm 2 mps 742 mmHg 86%
    14:00 +9°C° 0 mm 2 mps 741 mmHg 85%
    15:00 +9°C° 0 mm 2 mps 741 mmHg 87%
    16:00 +8°C° 0 mm 2 mps 741 mmHg 89%
    17:00 +8°C° 0 mm 2 mps 741 mmHg 91%
    18:00 +9°C° 0 mm 1 mps 742 mmHg 92%
    19:00 +8°C° 0 mm 1 mps 742 mmHg 94%
    20:00 +8°C° 0 mm 1 mps 742 mmHg 96%
    21:00 +8°C° 0 mm 1 mps 742 mmHg 96%
    22:00 +7°C° 0 mm 1 mps 742 mmHg 96%
    23:00 +7°C° 0 mm 1 mps 742 mmHg 96%

    24 February, Saturday

    Time Temperature Precipitation Wind Pressure Humidity
    00:00 +7°C° 0 mm 1 mps 742 mmHg 96%
    01:00 +7°C° 0 mm 1 mps 742 mmHg 96%
    02:00 +7°C° 0 mm 1 mps 742 mmHg 97%
    03:00 +7°C° 0 mm 1 mps 742 mmHg 97%
    04:00 +7°C° 0 mm 1 mps 742 mmHg 97%
    05:00 +6°C° 0 mm 1 mps 742 mmHg 97%
    06:00 +6°C° 0 mm 1 mps 742 mmHg 96%
    07:00 +7°C° 0 mm 1 mps 742 mmHg 96%
    08:00 +7°C° 0 mm 1 mps 742 mmHg 95%
    09:00 +7°C° 0 mm 1 mps 742 mmHg 92%
    10:00 +8°C° 0 mm 1 mps 741 mmHg 90%
    11:00 +7°C° 0 mm 2 mps 741 mmHg 87%
    12:00 +8°C° 0 mm 2 mps 741 mmHg 86%
    13:00 +8°C° 0 mm 2 mps 740 mmHg 85%
    14:00 +8°C° 0 mm 2 mps 740 mmHg 83%
    15:00 +8°C° 0.1 mm 2 mps 740 mmHg 85%
    16:00 +7°C° 0.1 mm 2 mps 739 mmHg 87%
    17:00 +7°C° 0.1 mm 2 mps 739 mmHg 89%
    18:00 +7°C° 0.4 mm 2 mps 739 mmHg 90%
    19:00 +6°C° 0.4 mm 2 mps 740 mmHg 92%
    20:00 +6°C° 0.4 mm 2 mps 740 mmHg 94%
    21:00 +5°C° 0.5 mm 2 mps 740 mmHg 94%
    22:00 +5°C° 0.5 mm 2 mps 740 mmHg 94%
    23:00 +5°C° 0.5 mm 2 mps 740 mmHg 94%

    25 February, Sunday

    Time Temperature Precipitation Wind Pressure Humidity
    00:00 +4°C° 0.6 mm 2 mps 740 mmHg 94%
    01:00 +4°C° 0.6 mm 2 mps 740 mmHg 94%
    02:00 +4°C° 0.6 mm 2 mps 740 mmHg 95%
    03:00 +3°C° 0.5 mm 2 mps 740 mmHg 95%
    04:00 +3°C° 0.5 mm 2 mps 740 mmHg 95%
    05:00 +3°C° 0.5 mm 2 mps 740 mmHg 95%
    06:00 +3°C° 0.6 mm 2 mps 740 mmHg 95%
    07:00 +2°C° 0.6 mm 2 mps 740 mmHg 95%
    08:00 +2°C° 0.6 mm 2 mps 741 mmHg 95%
    09:00 +2°C° 0.6 mm 2 mps 741 mmHg 94%
    10:00 +2°C° 0.6 mm 2 mps 741 mmHg 93%
    11:00 +3°C° 0.6 mm 2 mps 741 mmHg 92%
    12:00 +3°C° 0.5 mm 2 mps 741 mmHg 91%
    13:00 +3°C° 0.5 mm 2 mps 741 mmHg 91%
    14:00 +2°C° 0.5 mm 3 mps 741 mmHg 91%
    15:00 +1°C° 0.4 mm 3 mps 741 mmHg 92%
    16:00 +1°C° 0.4 mm 3 mps 741 mmHg 92%
    17:00 +1°C° 0.4 mm 3 mps 741 mmHg 93%
    18:00 +1°C° 0.3 mm 2 mps 741 mmHg 94%
    19:00 -1°C° 0.3 mm 2 mps 742 mmHg 94%
    20:00 -1°C° 0.3 mm 2 mps 742 mmHg 95%
    21:00 -2°C° 0.1 mm 2 mps 742 mmHg 95%
    22:00 -2°C° 0.1 mm 2 mps 742 mmHg 95%
    23:00 -2°C° 0.1 mm 2 mps 742 mmHg 94%

    26 February, Monday

    Time Temperature Precipitation Wind Pressure Humidity
    00:00 -2°C° 0.1 mm 2 mps 742 mmHg 94%
    01:00 -3°C° 0.1 mm 2 mps 742 mmHg 94%
    02:00 -3°C° 0.1 mm 2 mps 741 mmHg 94%
    03:00 -3°C° 0.3 mm 2 mps 741 mmHg 94%
    04:00 -3°C° 0.3 mm 2 mps 741 mmHg 94%
    05:00 -3°C° 0.3 mm 2 mps 740 mmHg 94%
    06:00 -3°C° 0.5 mm 2 mps 740 mmHg 94%
    07:00 -3°C° 0.5 mm 2 mps 740 mmHg 94%
    08:00 -3°C° 0.5 mm 2 mps 739 mmHg 94%
    09:00 -2°C° 0.7 mm 2 mps 739 mmHg 93%
    10:00 -2°C° 0.7 mm 2 mps 738 mmHg 93%
    11:00 -1°C° 0.7 mm 3 mps 738 mmHg 92%
    12:00 -1°C° 1.1 mm 2 mps 737 mmHg 93%
    13:00 -1°C° 1.1 mm 2 mps 737 mmHg 93%
    14:00 -1°C° 1.1 mm 2 mps 736 mmHg 93%
    15:00 -1°C° 1.8 mm 2 mps 736 mmHg 94%
    16:00 -1°C° 1.8 mm 2 mps 735 mmHg 94%
    17:00 -1°C° 1.8 mm 2 mps 735 mmHg 95%
    18:00 -2°C° 1.4 mm 2 mps 735 mmHg 95%
    19:00 -2°C° 1.4 mm 2 mps 735 mmHg 95%
    20:00 -3°C° 1.4 mm 2 mps 735 mmHg 95%
    21:00 -3°C° 0.8 mm 2 mps 735 mmHg 95%
    22:00 -3°C° 0.8 mm 2 mps 734 mmHg 95%
    23:00 -3°C° 0.8 mm 2 mps 734 mmHg 95%
    Show more